Auburn, IN

2:58 AM EST on December 16, 2019 (GMT -0500)
Auburn

Weather History for KGWB - August, 2019

Change the Weather History Date:

Tuesday, August 27, 2019

  Actual Average (KFWA) Record (KFWA)
Temperature  
Mean Temperature 73 °F -  
Max Temperature 78 °F 81 °F 96 °F (1948)
Min Temperature 68 °F 61 °F 45 °F (1910)
Cooling Degree Days 8    
Growing Degree Days 23 (Base 50)    
Moisture  
Dew Point 67 °F    
Average Humidity 85    
Maximum Humidity 100    
Minimum Humidity 61    
Precipitation  
Precipitation 0.11 in - - ()
Sea Level Pressure  
Sea Level Pressure 29.84 in    
Wind  
Wind Speed 6 mph (WSW)    
Max Wind Speed 10 mph    
Max Gust Speed -    
Visibility 10 miles    
Events Rain    
Averages and records for this station are not official NWS values.
T = Trace of Precipitation, MM = Missing Value Source: NWS Daily Summary

Daily Weather History Graph

Daily Weather History Graph

Search for Another Location

Airport or City:

Astronomy

Aug. 27, 2019 Rise Set
Actual Time 7:01 AM EDT 8:21 PM EDT
Civil Twilight 6:32 AM EDT 8:50 PM EDT
Nautical Twilight 5:58 AM EDT 9:24 PM EDT
Astronomical Twilight 5:21 AM EDT 10:00 PM EDT
Moon 3:22 AM EDT (8/27) 6:43 PM EDT (8/27)
Length of Visible Light 14h 17m
Length of Day
13h 20m
Waning Crescent, 11% of the Moon is Illuminated
Aug 27
Waning Crescent
Aug 30
New
Sep 5
First Quarter
Sep 14
Full
Sep 21
Last Quarter

Hourly Weather History & Observations

Time (EDT) Temp. Dew Point Humidity Pressure Visibility Wind Dir Wind Speed Gust Speed Precip Events Conditions
12:15 AM 69.8 °F 69.8 °F 100% 29.82 in 10.0 mi South 5.8 mph - N/A   Overcast
12:35 AM 69.8 °F 69.8 °F 100% 29.81 in 10.0 mi SSW 6.9 mph - N/A   Overcast
12:55 AM 69.8 °F 69.8 °F 100% 29.81 in 4.0 mi SSW 6.9 mph - 0.09 in Rain Heavy Rain
1:15 AM 69.8 °F 69.8 °F 100% 29.80 in 7.0 mi SSW 6.9 mph - 0.01 in Rain Rain
1:35 AM 69.8 °F 69.8 °F 100% 29.80 in 10.0 mi SSW 6.9 mph - 0.01 in Rain Light Rain
1:55 AM 69.8 °F 69.8 °F 100% 29.80 in 10.0 mi SSW 6.9 mph - 0.01 in   Overcast
2:15 AM 69.8 °F 69.8 °F 100% 29.79 in 10.0 mi SSW 6.9 mph - N/A   Overcast
2:35 AM 69.8 °F 69.8 °F 100% 29.79 in 10.0 mi SSW 5.8 mph - N/A   Overcast
2:55 AM 69.8 °F 69.8 °F 100% 29.79 in 10.0 mi SSW 5.8 mph - N/A   Overcast
3:15 AM 69.8 °F 69.8 °F 100% 29.79 in 10.0 mi SSW 4.6 mph - N/A   Overcast
3:35 AM 69.8 °F 69.8 °F 100% 29.79 in 10.0 mi SSW 5.8 mph - N/A   Overcast
3:55 AM 69.8 °F 69.8 °F 100% 29.79 in 10.0 mi SSW 5.8 mph - N/A   Overcast
4:15 AM 69.8 °F 69.8 °F 100% 29.79 in 7.0 mi SSW 5.8 mph - N/A Rain Rain
4:35 AM 69.8 °F 69.8 °F 100% 29.79 in 10.0 mi SSW 5.8 mph - N/A   Overcast
4:55 AM 69.8 °F 69.8 °F 100% 29.79 in 10.0 mi SSW 5.8 mph - N/A   Overcast
5:15 AM 69.8 °F 69.8 °F 100% 29.79 in 10.0 mi SW 4.6 mph - N/A   Overcast
5:35 AM 69.8 °F 69.8 °F 100% 29.79 in 10.0 mi SW 3.5 mph - N/A Rain Rain
5:55 AM 69.8 °F 69.8 °F 100% 29.80 in 10.0 mi SW 3.5 mph - N/A   Overcast
6:15 AM 69.8 °F 69.8 °F 100% 29.80 in 10.0 mi SW 4.6 mph - N/A   Mostly Cloudy
6:35 AM 69.8 °F 69.8 °F 100% 29.80 in 10.0 mi Calm Calm - N/A   Mostly Cloudy
6:55 AM 69.8 °F 69.8 °F 100% 29.80 in 7.0 mi Calm Calm - 0.01 in   Scattered Clouds
7:15 AM 68.0 °F 68.0 °F 100% 29.80 in 7.0 mi SSW 3.5 mph - N/A   Clear
7:35 AM 69.8 °F 69.8 °F 100% 29.81 in 5.0 mi SW 3.5 mph - N/A   Scattered Clouds
7:55 AM 69.8 °F 69.8 °F 100% 29.81 in 5.0 mi SW 3.5 mph - N/A   Mostly Cloudy
8:15 AM 69.8 °F 69.8 °F 100% 29.81 in 5.0 mi Calm Calm - N/A   Mostly Cloudy
8:35 AM 69.8 °F 69.8 °F 100% 29.81 in 7.0 mi WSW 4.6 mph - N/A   Mostly Cloudy
8:55 AM 69.8 °F 69.8 °F 100% 29.83 in 10.0 mi WSW 4.6 mph - N/A   Mostly Cloudy
9:15 AM 71.6 °F 69.8 °F 94% 29.82 in 10.0 mi WSW 5.8 mph - N/A   Mostly Cloudy
9:35 AM 71.6 °F 68.0 °F 88% 29.82 in 10.0 mi West 10.4 mph - N/A   Overcast
9:55 AM 71.6 °F 68.0 °F 88% 29.82 in 10.0 mi West 8.1 mph - N/A   Mostly Cloudy
10:15 AM 71.6 °F 66.2 °F 83% 29.83 in 10.0 mi West 8.1 mph - N/A   Scattered Clouds
10:35 AM 71.6 °F 66.2 °F 83% 29.83 in 10.0 mi West 6.9 mph - N/A   Scattered Clouds
10:55 AM 71.6 °F 66.2 °F 83% 29.84 in 10.0 mi West 8.1 mph - N/A   Scattered Clouds
11:15 AM 71.6 °F 66.2 °F 83% 29.84 in 10.0 mi West 5.8 mph - N/A   Mostly Cloudy
11:35 AM 71.6 °F 66.2 °F 83% 29.85 in 10.0 mi West 5.8 mph - N/A   Overcast
11:55 AM 73.4 °F 68.0 °F 83% 29.85 in 10.0 mi WSW 6.9 mph - N/A   Mostly Cloudy
12:15 PM 71.6 °F 66.2 °F 83% 29.85 in 10.0 mi West 6.9 mph - N/A   Overcast
12:35 PM 73.4 °F 66.2 °F 78% 29.85 in 10.0 mi West 6.9 mph - N/A   Scattered Clouds
12:55 PM 73.4 °F 66.2 °F 78% 29.85 in 10.0 mi West 6.9 mph - N/A   Clear
1:15 PM 73.4 °F 66.2 °F 78% 29.85 in 10.0 mi West 6.9 mph - N/A   Clear
1:35 PM 73.4 °F 66.2 °F 78% 29.85 in 10.0 mi West 5.8 mph - N/A   Scattered Clouds
1:55 PM 73.4 °F 66.2 °F 78% 29.85 in 10.0 mi West 5.8 mph - N/A   Scattered Clouds
2:15 PM 75.2 °F 66.2 °F 73% 29.85 in 10.0 mi West 6.9 mph - N/A   Clear
2:35 PM 75.2 °F 64.4 °F 69% 29.85 in 10.0 mi WNW 8.1 mph - N/A   Clear
2:55 PM 75.2 °F 64.4 °F 69% 29.86 in 10.0 mi WSW 5.8 mph - N/A   Clear
3:15 PM 77.0 °F 64.4 °F 65% 29.85 in 10.0 mi West 5.8 mph - N/A   Clear
3:35 PM 77.0 °F 64.4 °F 65% 29.84 in 10.0 mi West 6.9 mph - N/A   Clear
3:55 PM 77.0 °F 64.4 °F 65% 29.84 in 10.0 mi West 6.9 mph - N/A   Clear
4:15 PM 78.8 °F 64.4 °F 61% 29.85 in 10.0 mi West 6.9 mph - N/A   Clear
4:35 PM 77.0 °F 64.4 °F 65% 29.85 in 10.0 mi West 9.2 mph - N/A   Scattered Clouds
4:55 PM 77.0 °F 64.4 °F 65% 29.85 in 10.0 mi West 6.9 mph - N/A   Scattered Clouds
5:15 PM 77.0 °F 64.4 °F 65% 29.85 in 10.0 mi WSW 6.9 mph - N/A   Scattered Clouds
5:35 PM 77.0 °F 64.4 °F 65% 29.85 in 10.0 mi West 9.2 mph - N/A   Clear
5:55 PM 77.0 °F 62.6 °F 61% 29.86 in 10.0 mi West 8.1 mph - N/A   Clear
6:15 PM 77.0 °F 62.6 °F 61% 29.86 in 10.0 mi West 8.1 mph - N/A   Clear
6:35 PM 77.0 °F 62.6 °F 61% 29.85 in 10.0 mi WSW 4.6 mph - N/A   Clear
6:55 PM 77.0 °F 62.6 °F 61% 29.85 in 10.0 mi WSW 4.6 mph - N/A   Clear
7:15 PM 77.0 °F 64.4 °F 65% 29.85 in 10.0 mi WSW 3.5 mph - N/A   Clear
7:35 PM 75.2 °F 64.4 °F 69% 29.86 in 10.0 mi Calm Calm - N/A   Clear
7:55 PM 73.4 °F 62.6 °F 69% 29.87 in 10.0 mi SW 3.5 mph - N/A   Clear
8:15 PM 73.4 °F 62.6 °F 69% 29.87 in 10.0 mi SW 3.5 mph - N/A   Clear
8:35 PM 69.8 °F 64.4 °F 83% 29.87 in 10.0 mi Calm Calm - N/A   Clear
8:55 PM 68.0 °F 64.4 °F 88% 29.87 in 10.0 mi Calm Calm - N/A   Scattered Clouds
9:15 PM 69.8 °F 64.4 °F 83% 29.88 in 10.0 mi Calm Calm - N/A   Mostly Cloudy
9:35 PM 71.6 °F 64.4 °F 78% 29.89 in 10.0 mi SW 4.6 mph - N/A   Mostly Cloudy
10:15 PM 69.8 °F 62.6 °F 78% 29.90 in 10.0 mi SSW 3.5 mph - N/A   Scattered Clouds
10:35 PM 68.0 °F 62.6 °F 83% 29.91 in 10.0 mi SSW 4.6 mph - N/A   Clear
10:55 PM 68.0 °F 62.6 °F 83% 29.91 in 10.0 mi SW 3.5 mph - N/A   Clear
11:15 PM 68.0 °F 62.6 °F 83% 29.91 in 10.0 mi SW 3.5 mph - N/A   Clear
11:35 PM 68.0 °F 62.6 °F 83% 29.91 in 10.0 mi WSW 3.5 mph - N/A   Clear
11:55 PM 68.0 °F 60.8 °F 78% 29.91 in 10.0 mi WSW 3.5 mph - N/A   Clear